Location: Brahman Valley
(40.6513°N, 111.8855°W)
Time: 08:39:44
(UTC+00:00)

Tiros 1 despin weight - Pass Details

Date: 19 May 2021
Orbit: 594 x 641 km, 48.2° (Epoch: 22 June)

Event Time Altitude Azimuth Distance (km) Brightness Sun altitude
Rises 06:10:44 0° 299° (WNW) 2,940 ? -27.2°
Reaches altitude 10° 06:13:06 10° 303° (WNW) 2,032 ? -27.3°
Enters shadow 06:17:24 57° 4° (N) 757 ? -27.6°
Maximum altitude 06:17:43 58° 23° (NNE) 745 - -27.6°
Drops below altitude 10° 06:22:20 10° 103° (ESE) 2,024 - -27.8°
Sets 06:24:42 0° 107° (ESE) 2,927 - -28.0°
